This demonstration page uses our WeatherBlox Daily Observations layout. Learn more.

41.55636, -103.73856

Hourly Observations for December 21, 2015

Temp ( °F °C ) Dew Point ( °F °C ) Humidity (%) Winds ( mph kmh ) Pressure ( in mb ) Visibility ( mi km ) Precip ( " mm )
12:40 am 00:40 Cloudy with Mist and Fog 27 -3 25 -4 93 93 SE 5 7 29.94 1014 1.75 2.816352 0 0
12:53 am 00:53 Mostly Cloudy with Freezing Fog 25 -4 25 -4 100 100 ESE 3 6 29.97 1015 0.5 0.804672 0 0
1:01 am 01:01 Mostly Cloudy with Freezing Fog 25 -4 25 -4 100 100 E 5 7 29.97 1015 0.25 0.402336 0 0
1:48 am 01:48 Mostly Cloudy with Freezing Fog 25 -4 25 -4 100 100 SE 5 7 29.97 1015 0.25 0.402336 0 0
1:53 am 01:53 Mostly Cloudy with Freezing Fog 25 -4 23 -5 93 93 ESE 6 9 29.97 1015 0.25 0.402336 0 0
2:53 am 02:53 Mostly Cloudy with Freezing Fog 25 -4 23 -5 93 93 Calm 29.97 1015 0.25 0.402336 0 0
3:53 am 03:53 Mostly Cloudy with Freezing Fog 25 -4 21 -6 86 86 NE 3 6 29.94 1014 0.25 0.402336 0 0
4:19 am 04:19 Mostly Cloudy with Mist and Fog 23 -5 21 -6 93 93 N 3 6 29.94 1014 0.75 1.207008 0 0
4:27 am 04:27 Mostly Cloudy with Mist and Fog 21 -6 19 -7 93 93 Calm 29.97 1015 1 1.609344 0 0
4:39 am 04:39 Cloudy with Mist and Fog 21 -6 19 -7 93 93 Calm 30 1016 3 4.828032 0 0
4:53 am 04:53 Cloudy with Mist and Fog 23 -5 21 -6 93 93 Calm 29.97 1015 5 8.04672 0 0
5:53 am 05:53 Cloudy with Mist and Fog 23 -5 21 -6 93 93 NNW 3 6 29.97 1015 6 9.656064 0 0
6:53 am 06:53 Clear 23 -5 19 -7 86 86 Calm 30.03 1017 7 11.265408 0 0
7:53 am 07:53 Sunny with Mist and Fog 19 -7 16 -9 86 86 Calm 30.06 1018 4 6.437376 0 0
8:53 am 08:53 Sunny with Mist and Fog 25 -4 21 -6 86 86 Calm 30 1016 5 8.04672 0 0
9:53 am 09:53 Sunny 28 -2 21 -6 74 74 NW 9 15 30 1016 10 16.09344 0 0
10:53 am 10:53 Sunny 34 1 25 -4 70 70 WNW 7 11 29.94 1014 10 16.09344 0 0
11:53 am 11:53 Sunny 39 4 21 -6 48 48 WNW 16 26 29.88 1012 10 16.09344 0 0
12:53 pm 12:53 Sunny 41 5 21 -6 45 45 W 8 13 29.83 1010 10 16.09344 0 0
1:53 pm 13:53 Sunny 41 5 21 -6 45 45 W 14 22 29.8 1009 10 16.09344 0 0
2:53 pm 14:53 Sunny 41 5 19 -7 42 42 WNW 8 13 29.77 1008 10 16.09344 0 0
3:53 pm 15:53 Sunny 37 3 19 -7 48 48 NNW 6 9 29.8 1009 10 16.09344 0 0
4:53 pm 16:53 Partly Cloudy 28 -2 19 -7 69 69 ESE 5 7 29.85 1011 10 16.09344 0 0
5:53 pm 17:53 Mostly Cloudy 27 -3 19 -7 74 74 E 7 11 29.85 1011 10 16.09344 0 0
6:53 pm 18:53 Cloudy 28 -2 19 -7 69 69 ESE 7 11 29.83 1010 10 16.09344 0 0
7:53 pm 19:53 Clear 28 -2 19 -7 69 69 ESE 9 15 29.77 1008 10 16.09344 0 0
8:53 pm 20:53 Mostly Clear 30 -1 19 -7 64 64 SE 10 17 29.71 1006 10 16.09344 0 0
9:53 pm 21:53 Clear 25 -4 18 -8 74 74 ESE 10 17 29.74 1007 10 16.09344 0 0
10:53 pm 22:53 Cloudy 28 -2 19 -7 69 69 ESE 13 20 29.65 1004 10 16.09344 0 0
11:53 pm 23:53 Mostly Cloudy 30 -1 21 -6 69 69 ESE 13 20 29.62 1003 10 16.09344 0 0

Powered by AerisWeather